{"data":{"norad_id":52289,"intl_designator":"2022-041AE","name":"STARLINK-3751","alt_names":[],"object_type":"PAYLOAD","status":"ACTIVE","operator":null,"country":"US","launch_date":"2022-04-21","launch_site_code":"AFETR","launch_vehicle":null,"mission":null,"orbit_class":"UNKNOWN","rcs_meters":null,"size_class":null,"mass_kg":null,"dimensions":null,"purposes":["comms"],"wikipedia_slug":null,"has_3d_model":false,"image_url":null,"decayed_at":null,"tle_current":{"epoch":"2026-05-25T02:06:12.872736Z","epoch_age_seconds":70573,"freshness":"FRESH","line1":"1 52289U 22041AE  26145.08764899 -.00001721  00000+0 -90035-4 0  9997","line2":"2 52289  53.2139 116.1555 0001121  72.8158 287.2957 15.08845164226036","mean_motion":15.08845164,"eccentricity":0.0001121,"inclination_deg":53.2139,"raan_deg":116.1555,"arg_perigee_deg":72.8158,"mean_anomaly_deg":287.2957,"bstar":-9.0035e-5,"rev_number":22603,"period_min":95.437228044163,"perigee_km":538.95211210482,"apogee_km":540.5030973492,"semimajor_km":6917.864604727,"source":"CELESTRAK","updated_at":"2026-05-25T13:38:17.085595Z"}}}